Wind_Speed
8 9 9 11 13 14 15 14 14 13 13 13 13 13 13 13 13 14 13 12 11 11 11 12 13 13 14 14 14 13 12 12 11 12 12 14 15 15 16 16 16 16 15 14 14 14 14 13 13 13 13 13 13 14 16 17 17 17 18 18 18 18 19 19 19 19 20 21 23 23 24 24 25 25 26 27 26 23 22 22 21 21 20 20 19
11 11 11 12 12 14 15 15 14 13 13 13 14 13 14 13 14 15 14 13 12 12 12 12 13 13 13 13 13 13 12 12 11 11 11 13 14 15 16 16 16 16 15 15 15 15 15 14 13 14 14 13 14 14 15 16 16 16 17 17 17 17 18 18 19 20 20 21 22 23 24 25 24 25 26 27 28 27 25 23 22 22 21 21 20
12 13 14 13 13 15 16 15 14 13 13 13 14 14 14 14 15 15 15 14 13 12 13 13 13 13 13 13 12 12 12 12 11 11 11 11 13 15 16 16 17 17 16 15 15 15 15 14 14 14 14 14 14 14 14 15 15 15 16 16 16 16 17 18 19 20 20 21 22 23 24 24 25 25 26 27 28 29 28 25 23 22 22 22 21
9 13 15 14 15 16 16 15 13 13 13 13 13 14 14 15 15 16 16 15 14 13 14 14 14 13 13 12 11 11 11 11 10 10 10 10 12 15 16 17 17 17 17 16 16 16 16 15 15 15 14 14 14 14 13 14 14 15 15 15 15 15 16 17 18 19 19 21 21 22 24 24 25 25 26 27 27 28 29 28 24 22 23 23 22
9 14 15 15 16 16 15 14 12 12 12 13 13 14 15 15 16 17 17 16 15 14 14 14 14 13 13 12 10 10 10 10 10 10 9 10 11 14 16 18 18 18 17 17 17 17 17 16 15 16 15 14 14 13 13 13 13 13 14 14 14 14 15 15 16 17 18 20 21 22 24 24 24 25 25 26 26 27 28 29 27 25 23 23 23
11 14 14 15 15 15 14 12 11 11 12 13 14 15 15 16 16 18 18 17 16 15 15 14 14 14 13 12 10 9 9 9 9 9 9 9 10 12 16 18 19 19 18 18 17 17 17 17 16 17 16 15 15 14 13 12 12 12 12 13 12 13 13 14 14 14 16 19 20 22 24 23 23 23 24 25 25 26 26 28 28 28 26 24 23
12 12 13 15 14 13 11 11 11 11 13 13 14 15 15 16 17 18 18 17 17 16 15 14 14 14 13 12 10 9 8 8 8 8 8 9 9 11 14 17 19 19 19 18 18 18 18 18 17 17 17 16 15 14 13 12 11 11 11 11 11 12 12 12 12 11 14 17 20 22 22 21 21 22 22 23 24 25 26 27 27 28 28 27 24
11 10 11 13 12 11 11 11 12 12 13 13 14 15 16 16 17 17 18 18 17 16 15 14 14 14 13 12 10 9 8 7 7 7 8 8 8 9 12 16 19 19 19 19 18 18 18 18 18 18 18 16 15 14 13 12 11 10 10 10 11 11 10 11 11 9 11 15 19 20 20 19 20 21 21 22 23 23 24 26 26 26 28 28 27
11 9 10 10 11 11 11 12 12 12 13 13 15 15 16 16 16 17 17 17 16 15 14 14 13 13 13 12 11 9 8 7 7 7 7 7 7 8 10 14 18 19 20 19 19 19 19 19 18 19 19 17 16 15 14 12 11 10 9 10 10 9 9 10 10 9 10 13 16 17 17 17 18 19 20 21 21 22 23 24 25 26 27 28 28
11 11 11 11 11 12 12 12 13 13 13 14 15 15 15 15 15 16 17 17 15 15 14 13 13 12 12 12 11 9 8 7 7 7 7 6 6 7 8 11 15 18 20 20 20 20 20 20 20 20 20 19 17 16 15 13 12 10 9 9 10 9 9 9 8 8 10 13 14 14 15 15 16 17 18 19 19 20 22 23 24 24 25 26 26
11 12 12 11 12 13 13 13 13 13 14 14 14 14 14 14 15 15 16 16 15 14 14 13 12 12 11 10 9 8 8 8 7 7 6 6 6 6 7 9 12 16 19 21 21 21 21 21 21 21 21 20 19 17 16 14 13 11 10 10 10 10 10 9 7 7 10 12 12 12 13 13 14 15 16 16 17 19 21 21 22 23 24 24 25
10 10 10 11 12 13 13 13 13 13 13 13 13 13 13 14 14 15 15 16 16 15 14 13 12 12 10 9 8 8 7 7 7 6 6 5 5 7 7 7 9 13 17 20 22 22 22 22 23 22 22 22 20 19 17 16 14 12 11 11 11 10 10 9 7 8 9 11 12 11 11 11 12 13 13 14 15 17 18 19 20 21 22 23 23
8 8 9 10 11 11 12 12 13 13 12 12 12 12 13 13 14 15 15 16 16 16 15 14 12 11 9 9 8 8 8 7 7 6 6 4 4 6 7 6 7 10 14 18 21 22 23 23 24 24 23 23 22 21 19 17 15 14 13 12 12 10 10 9 7 7 9 10 11 10 9 10 10 11 11 12 13 14 15 17 18 19 20 21 22
7 8 8 8 10 11 12 12 13 13 12 12 11 12 12 13 14 14 15 15 16 15 15 13 11 9 8 8 8 8 7 7 7 7 6 5 4 5 6 5 4 7 10 14 18 21 22 23 23 24 24 24 24 22 20 19 17 15 14 13 13 12 11 9 8 8 9 10 10 9 9 9 9 9 9 10 11 12 13 14 16 17 18 19 19
6 8 8 9 10 11 12 13 13 13 12 11 11 10 11 12 13 13 14 15 15 14 13 12 10 9 8 8 7 7 6 6 7 8 6 5 3 4 5 4 3 5 7 10 14 19 22 23 24 25 25 25 25 24 22 20 19 17 16 15 14 14 12 11 9 8 9 10 9 7 8 7 7 8 8 8 8 10 11 11 13 14 16 16 17
6 7 9 10 11 12 12 13 13 13 12 11 10 10 11 11 11 12 13 13 14 13 13 11 10 8 7 6 6 6 5 5 5 6 5 3 3 3 3 4 4 4 5 7 10 14 19 23 24 25 26 27 26 25 24 22 21 19 17 16 15 15 14 12 10 9 10 10 9 6 6 6 5 6 7 7 7 8 8 9 10 11 13 14 15
6 7 9 10 11 12 13 14 14 13 12 11 10 10 10 9 9 10 11 13 14 14 13 11 10 8 6 5 5 5 4 3 3 4 4 3 2 2 3 4 5 5 5 6 7 9 14 20 24 25 26 27 27 26 26 24 23 21 20 18 17 17 15 14 12 11 11 10 9 6 4 4 3 3 4 5 6 6 7 8 8 9 10 11 12
6 7 10 12 12 13 13 15 14 12 11 10 9 8 8 8 8 10 12 14 15 14 12 11 10 8 6 5 5 3 2 2 3 3 3 1 1 1 2 4 5 6 6 6 6 8 10 15 21 24 25 26 27 27 26 26 25 23 22 20 19 18 17 16 14 13 13 10 8 7 5 4 3 1 1 2 3 5 6 6 7 7 8 9 10
8 9 12 13 13 13 14 15 14 12 10 9 9 7 8 8 9 11 13 16 16 14 12 11 10 9 7 4 3 2 3 5 4 2 1 0 0 2 3 4 5 6 7 7 8 9 10 12 16 21 24 25 26 27 27 27 26 24 23 22 21 20 19 17 17 16 14 13 11 9 8 6 5 4 3 2 2 2 3 5 6 6 7 7 8
10 11 14 14 14 15 14 14 13 13 10 9 9 8 9 9 11 14 16 17 16 14 12 11 11 10 7 4 3 4 7 6 4 2 1 1 2 3 4 4 5 5 6 7 9 10 11 11 12 16 21 24 25 25 26 27 26 25 24 23 22 22 21 19 19 18 16 15 13 11 9 8 7 6 6 5 4 4 4 3 4 5 6 6 6
10 12 14 15 15 14 14 15 14 12 10 10 11 10 9 10 13 16 17 17 16 14 12 12 13 10 7 5 6 8 9 6 4 2 3 5 6 5 5 5 5 5 6 7 8 10 11 10 10 12 17 22 24 25 25 26 26 26 25 23 22 22 22 21 21 20 19 18 15 13 12 10 10 9 8 8 7 7 6 6 5 5 4 5 5
9 11 13 15 15 14 16 16 13 12 11 12 12 11 10 11 14 17 17 17 16 14 13 13 13 10 7 7 9 9 7 5 3 4 6 8 8 7 6 6 6 5 6 7 8 8 10 11 10 10 13 18 22 24 24 24 25 25 25 23 23 22 22 20 21 22 22 20 18 16 15 13 12 11 10 10 10 9 8 8 8 7 6 5 5
9 10 12 15 14 15 16 12 11 11 10 11 11 11 12 13 15 17 17 17 16 15 13 14 11 8 6 8 9 7 4 3 4 5 7 9 9 8 7 7 7 7 7 8 8 8 9 11 11 10 12 15 19 22 23 23 23 24 24 24 23 22 22 20 22 25 23 20 20 19 17 16 15 14 13 12 12 11 10 10 10 9 8 7 6
9 10 13 15 14 14 13 11 12 9 8 10 11 12 13 14 17 18 18 17 16 14 14 12 7 6 5 7 7 4 3 4 6 7 8 9 10 9 8 8 7 7 8 8 9 9 9 10 12 12 11 14 16 19 21 22 22 22 22 23 23 23 23 22 24 26 22 20 21 21 20 19 18 17 16 15 14 13 12 11 11 10 10 9 8
9 11 13 15 14 11 11 13 12 8 8 11 12 13 15 16 17 18 17 16 15 15 13 8 5 5 6 8 6 4 4 7 8 9 8 8 8 8 8 8 8 8 8 9 10 10 10 10 12 13 13 13 15 17 19 19 21 22 22 22 23 24 24 23 26 25 22 22 23 22 22 21 21 19 18 17 16 14 13 13 12 11 11 10 9
10 11 13 16 15 9 10 14 10 8 9 12 13 14 16 16 16 17 17 16 16 15 13 8 5 6 6 7 5 5 7 9 10 9 8 8 8 7 8 8 7 8 9 9 9 9 9 9 10 12 14 14 15 17 18 18 20 22 23 23 24 24 22 22 24 23 22 24 24 24 23 23 23 21 19 19 18 16 15 14 14 13 12 12 11
10 11 12 15 13 7 10 12 9 10 11 13 14 14 15 16 15 16 16 16 16 13 11 8 6 5 4 7 6 7 8 9 11 10 9 8 7 7 7 7 7 8 8 7 7 7 8 7 6 8 11 14 16 16 17 19 20 22 24 25 24 21 19 21 21 20 22 24 24 24 23 23 23 22 21 20 19 18 16 16 15 15 14 13 13
11 11 13 14 11 8 10 9 10 12 13 14 15 15 16 16 16 16 16 15 13 10 8 6 6 5 5 8 9 9 10 10 10 10 10 8 7 7 7 7 8 9 8 7 7 8 8 7 5 5 7 11 15 15 16 18 17 19 21 20 20 20 19 20 20 19 21 23 23 23 23 23 23 23 22 21 20 19 18 17 16 16 16 15 14
12 12 14 13 10 10 10 10 12 14 16 16 17 17 17 16 16 15 14 12 10 8 6 6 6 6 6 8 9 9 9 10 10 9 8 7 7 7 6 7 8 8 7 7 7 8 10 9 6 6 6 9 13 13 14 17 16 17 18 17 19 20 20 20 20 20 20 22 23 22 22 22 22 22 22 21 21 20 19 18 17 17 17 17 16
13 14 16 12 10 11 12 13 12 15 18 17 15 16 16 15 15 15 13 12 10 8 6 6 7 6 6 7 9 10 9 10 10 9 7 6 7 7 6 7 6 5 5 6 6 9 11 10 9 8 6 9 10 9 12 16 16 15 14 15 18 17 17 19 19 20 21 22 22 21 22 22 21 21 21 21 21 20 20 18 18 17 17 17 17
14 15 17 13 12 14 14 13 14 17 18 16 14 13 14 14 15 15 15 12 9 7 6 6 6 5 5 7 9 10 10 10 9 8 7 7 7 7 6 6 4 3 4 5 6 8 10 10 10 9 7 8 9 8 11 13 14 13 11 13 15 14 16 17 17 18 19 21 20 20 20 21 20 20 20 20 20 20 20 19 18 18 18 18 18
13 15 17 15 14 15 15 15 19 22 20 19 17 14 13 13 14 13 11 9 6 5 4 5 6 6 6 7 8 10 10 9 8 8 7 7 6 6 5 4 3 2 3 5 5 6 9 10 10 9 7 8 9 8 10 12 10 9 10 12 13 14 16 15 15 16 16 18 18 18 20 21 20 18 18 19 20 20 20 19 19 18 18 18 18
14 17 20 17 15 15 16 16 19 22 23 23 19 15 13 11 11 10 8 7 5 3 3 4 6 7 6 5 6 9 9 8 8 7 6 7 6 6 5 4 4 3 2 4 5 6 8 10 10 8 6 7 8 7 9 10 7 9 10 11 12 12 13 13 13 12 12 13 14 17 20 21 19 17 16 18 19 19 19 19 19 19 18 19 19
16 19 21 19 16 15 15 13 13 14 16 20 20 16 13 11 9 8 6 4 4 3 2 2 3 4 4 4 4 6 8 7 7 5 4 5 6 5 5 4 5 3 3 3 4 6 8 10 10 7 6 6 6 5 7 6 6 9 11 10 10 10 11 11 10 9 8 10 13 16 17 17 16 15 15 16 17 18 18 19 19 19 18 19 19
18 21 22 21 18 16 14 12 12 10 10 12 15 15 12 9 8 6 5 4 4 3 3 4 4 3 1 2 2 3 4 5 6 6 5 4 4 6 4 4 5 4 4 3 5 7 9 11 9 6 7 7 6 5 6 5 5 6 9 10 10 9 8 8 5 6 8 11 14 14 13 12 13 13 13 13 15 16 17 18 18 18 18 18 19
20 21 23 24 21 18 16 15 15 14 12 10 10 12 10 9 10 9 7 7 7 6 7 8 9 7 3 2 3 1 2 2 4 5 5 4 4 6 5 4 5 4 4 4 6 8 9 10 8 7 7 7 6 5 6 6 8 4 5 8 8 7 6 6 5 4 6 9 12 11 10 10 10 9 10 11 12 14 16 17 17 18 18 19 19
21 21 22 24 20 20 19 17 17 17 16 14 11 10 8 8 10 10 9 9 9 9 8 9 10 9 7 6 5 4 2 1 2 3 4 4 4 5 5 5 6 5 5 5 7 9 9 9 8 7 7 7 7 6 6 5 9 6 3 6 7 6 6 6 5 4 4 5 8 10 5 6 5 6 7 8 10 12 14 15 16 17 18 19 19
23 23 21 20 18 20 22 20 19 19 17 15 13 13 12 11 12 12 11 11 11 11 9 8 10 10 10 9 7 7 5 2 0 1 2 1 2 3 4 5 6 5 7 6 7 9 8 8 7 6 7 7 7 7 6 4 8 7 3 4 6 6 6 6 5 5 5 5 7 10 5 3 2 4 6 7 9 11 13 14 16 17 18 17 17
26 23 18 15 15 17 23 26 23 20 18 16 14 15 16 14 15 15 14 13 11 10 9 9 11 11 10 9 9 9 6 3 2 1 2 2 2 2 3 5 5 4 6 8 8 9 8 8 8 6 6 7 8 7 4 3 5 6 5 5 5 5 5 6 6 6 5 5 7 8 6 4 2 3 5 7 9 11 12 14 16 17 17 17 16
23 17 13 14 15 16 23 30 29 24 21 18 16 17 18 18 18 16 14 13 12 11 10 11 12 12 11 11 11 10 8 5 2 1 2 3 2 1 2 5 4 3 5 8 9 10 9 9 9 9 7 7 8 6 3 4 3 4 5 6 6 6 6 7 7 6 5 5 6 6 5 4 4 4 6 6 7 9 11 14 17 18 18 17 17
15 10 11 16 17 16 18 24 27 26 24 22 20 21 23 21 18 14 13 12 12 12 11 11 12 13 13 13 13 12 10 7 4 2 2 3 3 1 2 5 3 2 4 7 8 9 10 9 9 10 8 7 9 7 6 6 5 5 5 6 6 6 7 8 7 6 5 5 5 6 7 5 3 3 5 5 5 5 7 10 14 16 17 15 15
8 9 13 19 20 17 16 16 17 20 23 25 26 25 24 21 17 14 12 11 10 10 10 11 12 13 14 14 14 14 12 10 8 6 4 4 3 1 2 4 3 2 4 6 6 8 9 9 8 9 8 8 9 8 7 7 7 8 7 6 5 6 7 8 7 6 6 6 5 6 7 5 3 2 2 3 3 4 5 6 7 10 12 12 12
7 11 16 19 19 17 15 12 12 13 14 18 21 21 17 16 16 12 10 11 10 9 9 10 11 13 14 14 15 15 14 11 10 8 6 5 3 1 1 3 3 3 4 5 6 7 9 8 8 9 9 9 9 8 8 9 9 9 8 6 5 5 6 6 6 7 7 6 5 5 5 5 4 3 1 1 1 3 5 4 4 6 7 7 9
9 9 13 15 16 15 12 11 11 9 7 9 14 17 13 12 13 11 10 11 9 9 8 8 10 12 13 14 14 14 14 11 9 8 7 6 4 1 0 2 3 2 3 5 6 8 9 8 9 10 10 10 9 10 11 10 9 8 7 6 5 4 5 5 6 7 7 6 5 4 3 3 2 2 1 1 1 1 3 3 2 3 4 3 4
11 9 9 13 17 17 13 12 12 11 11 10 10 15 15 11 12 11 10 10 8 6 5 6 8 10 12 13 13 13 13 11 9 7 7 6 5 3 1 1 2 2 2 3 5 6 7 8 9 9 10 10 10 10 10 9 9 8 8 7 6 4 3 4 4 6 7 6 5 5 5 3 2 2 1 0 1 1 2 3 2 2 2 2 1
11 10 9 12 17 18 14 14 14 12 12 10 9 12 14 12 11 10 9 8 5 4 3 4 7 9 10 11 12 13 13 12 10 8 6 6 6 4 2 0 2 3 2 4 5 5 6 6 7 8 9 9 9 9 8 8 9 9 9 8 6 4 4 5 4 6 8 7 6 7 6 5 5 5 3 2 4 5 5 4 4 4 3 2 2
9 9 9 11 15 19 18 17 16 14 13 12 12 12 12 10 9 8 7 5 3 1 2 3 5 7 9 10 12 12 12 12 11 10 8 7 7 6 4 2 2 4 4 5 5 5 6 6 5 6 7 7 7 7 7 8 8 9 9 8 6 6 7 7 6 8 10 10 8 6 4 3 4 4 3 3 5 7 7 6 6 6 4 4 4
9 9 10 11 14 19 19 18 17 18 19 17 15 14 12 10 8 7 6 4 3 4 5 5 5 6 7 9 10 11 12 12 12 12 10 8 7 6 5 3 2 4 6 7 7 7 8 7 6 6 6 5 6 7 7 8 8 8 9 8 7 8 8 7 7 8 9 9 7 4 4 3 3 4 3 3 4 5 7 7 6 5 4 5 5
9 10 10 11 13 17 19 19 20 21 23 20 17 16 14 11 11 9 7 7 7 8 8 6 5 5 6 8 9 11 12 12 13 13 12 11 9 7 5 5 4 3 6 8 8 7 7 7 7 8 7 6 8 8 7 7 7 7 8 8 8 7 7 7 8 8 8 8 7 5 4 3 3 2 2 2 3 3 4 5 4 3 3 4 4
8 9 10 12 14 16 18 21 22 22 22 22 20 18 14 13 12 11 9 8 8 9 9 7 6 6 6 7 9 11 12 12 13 13 13 13 12 10 7 6 4 3 4 5 7 6 6 7 9 9 9 9 10 9 7 6 7 7 8 9 9 8 7 7 8 7 8 8 6 5 4 3 3 2 1 1 1 1 1 3 3 4 3 3 4
4 7 11 13 15 16 18 20 21 20 20 21 22 18 13 15 14 12 9 9 9 9 9 9 8 8 8 9 9 10 11 12 13 13 13 14 15 13 9 7 4 2 4 5 6 6 5 6 8 9 9 9 10 10 8 8 8 8 7 8 8 7 7 8 8 7 7 6 3 4 5 5 3 2 1 1 1 1 1 2 3 4 3 4 4
Wind_Direction
226 222 230 231 222 214 213 212 214 219 222 222 218 214 212 206 197 189 179 169 161 156 151 142 135 130 122 114 107 103 101 103 111 127 143 155 165 172 175 171 165 164 163 161 156 148 143 142 139 132 126 119 110 109 109 105 101 98 95 92 88 85 84 83 82 81 81 80 78 75 72 69 67 65 64 62 62 62 63 62 64 66 68 69 71
234 227 229 231 223 214 212 212 212 216 221 220 218 215 213 206 197 190 181 173 164 159 156 149 146 140 132 124 117 112 109 109 112 122 137 152 164 172 178 176 171 168 167 166 159 153 149 147 145 138 132 124 118 117 114 110 105 102 99 96 92 88 87 85 84 83 81 80 79 77 74 71 68 66 64 62 61 60 60 61 62 66 68 69 71
243 229 222 224 219 213 209 211 212 216 221 220 219 216 215 208 199 191 183 176 168 163 161 157 155 150 141 134 127 121 116 112 111 117 128 145 162 172 179 181 176 173 172 169 163 158 154 152 150 143 138 131 125 124 120 115 110 106 102 99 96 92 89 86 85 84 82 81 79 78 76 73 70 67 65 63 61 60 60 61 62 65 68 70 72
234 218 216 216 213 211 206 210 212 218 222 221 221 218 216 209 200 192 185 179 171 168 167 164 161 158 150 143 136 129 121 115 113 116 124 138 157 171 179 184 183 178 175 173 168 164 161 158 156 149 145 139 132 132 127 122 117 111 106 102 99 97 93 89 87 85 84 83 82 81 78 73 71 69 67 65 63 62 62 62 63 65 68 70 72
218 208 212 210 209 208 205 210 213 219 222 223 224 219 216 209 201 194 187 181 175 173 173 170 167 165 157 151 147 137 126 120 119 120 125 136 152 168 179 185 187 183 179 176 173 170 166 164 161 154 152 147 140 139 134 129 124 117 112 106 103 100 97 94 89 87 88 87 84 82 79 74 72 70 69 68 66 64 64 63 63 64 67 69 71
214 208 212 207 204 205 206 211 215 221 224 224 224 221 216 209 203 195 189 182 179 178 177 176 173 169 163 159 155 146 136 128 126 126 130 137 148 165 177 186 189 188 184 180 179 175 171 169 166 161 158 154 147 145 141 138 131 125 120 113 109 104 101 97 91 90 90 88 85 82 78 75 73 71 70 70 68 67 65 65 64 65 66 68 70
209 206 210 204 198 202 206 211 219 223 225 226 225 221 216 211 205 197 190 185 182 182 181 180 178 173 168 164 163 156 147 139 132 130 132 139 146 160 173 185 191 192 188 184 183 181 176 174 171 166 164 161 154 152 148 145 140 135 129 124 119 113 108 102 94 90 90 89 86 81 77 75 74 73 71 71 71 69 67 66 65 66 66 66 69
198 198 204 198 192 195 203 213 221 225 228 228 226 222 216 213 207 200 192 188 186 185 186 184 183 177 172 171 171 164 157 150 140 133 132 139 146 157 169 182 191 195 193 188 187 185 181 179 177 172 170 167 161 159 156 153 150 144 138 134 128 121 114 106 100 96 95 91 84 79 77 76 75 74 73 72 71 70 70 69 67 67 67 67 67
184 190 196 191 191 195 204 214 223 228 231 230 226 222 217 214 209 202 195 192 189 189 189 188 188 182 179 179 177 169 163 158 150 141 134 139 145 155 168 179 189 195 197 194 191 189 187 184 182 179 175 174 169 166 164 161 159 153 147 141 134 127 120 113 111 109 101 90 83 82 81 77 76 76 74 74 73 72 72 71 69 67 68 68 67
180 188 190 192 196 201 209 217 226 231 233 232 227 222 218 215 211 206 199 195 192 192 193 192 192 188 187 185 181 173 168 168 160 145 134 138 141 151 165 176 187 194 198 199 196 193 191 188 187 186 181 180 177 173 171 169 166 163 157 148 141 136 132 126 123 121 108 95 88 87 84 79 77 76 74 74 74 74 73 72 71 69 69 69 68
185 193 193 199 205 210 216 222 230 236 237 232 228 225 222 219 214 210 204 198 194 195 197 196 195 194 194 190 182 177 181 181 170 153 139 137 136 144 161 174 185 194 199 201 200 197 195 193 191 191 187 185 184 180 177 175 173 171 167 158 152 149 148 140 140 137 117 105 98 90 85 80 77 75 74 73 74 75 74 73 72 72 71 71 70
188 198 203 208 217 220 224 230 236 240 239 234 231 230 227 224 220 215 209 203 198 197 200 199 198 199 195 190 185 184 193 187 173 160 141 138 139 146 160 172 183 194 201 203 203 200 198 196 194 194 192 190 189 187 184 181 180 178 175 169 164 162 160 151 152 150 127 116 107 96 89 83 79 76 71 72 72 72 73 74 74 73 72 72 71
185 204 218 222 232 235 239 242 244 244 242 240 237 234 232 231 226 221 215 206 201 200 201 200 199 200 196 189 185 189 195 184 168 150 138 151 153 155 167 170 180 195 204 207 206 204 202 200 198 197 196 195 193 192 190 188 185 184 182 178 174 171 171 164 161 159 141 125 114 103 97 89 83 78 70 68 68 69 71 73 74 74 73 72 71
191 216 232 241 243 245 251 250 249 248 245 244 240 238 234 232 230 224 217 208 202 200 200 200 197 197 196 191 187 192 192 176 158 143 153 183 173 169 179 173 182 201 206 211 211 208 206 204 203 201 199 200 198 196 195 193 192 191 188 186 184 178 179 178 171 173 160 134 120 112 101 93 86 80 71 65 63 65 67 68 72 74 74 72 71
206 218 235 249 248 250 252 252 253 250 246 243 238 237 235 233 231 226 220 208 200 200 199 196 192 191 195 195 194 199 192 170 153 147 169 192 175 174 187 183 191 206 206 217 217 213 211 206 206 206 204 203 202 200 199 197 197 197 195 193 193 189 188 188 185 186 176 147 133 126 109 97 90 85 74 65 59 59 61 63 66 69 72 73 71
209 217 234 243 248 254 257 258 253 250 246 242 239 236 236 235 231 227 223 212 204 203 200 194 188 188 193 195 200 210 198 164 149 153 172 188 173 167 176 185 195 201 206 222 224 221 217 211 209 209 208 207 205 204 203 202 201 201 200 199 201 201 197 196 199 201 194 167 146 141 127 112 98 89 77 67 58 53 53 55 57 61 65 68 70
212 217 229 238 249 255 259 259 252 248 246 244 242 239 239 237 230 223 215 210 205 201 195 188 182 180 183 194 209 212 188 152 156 170 179 186 175 164 169 187 199 203 213 227 232 232 227 219 214 212 211 210 209 208 207 206 206 205 204 204 207 209 205 204 208 210 210 189 158 161 161 139 126 100 81 66 56 51 46 43 46 50 54 58 62
228 227 233 241 250 252 252 253 250 249 248 247 248 247 246 238 226 212 204 202 199 194 185 179 177 168 172 191 204 195 168 194 206 194 183 171 159 194 201 207 214 216 225 235 237 239 236 227 219 215 214 213 212 211 210 211 210 210 210 210 213 216 213 211 215 217 218 212 185 183 197 186 190 192 107 58 46 43 40 36 34 35 40 46 49
242 241 239 242 245 244 247 250 252 251 247 246 251 253 250 237 217 204 198 196 191 184 174 176 179 170 174 189 191 190 218 222 213 201 174 50 289 248 240 231 230 231 236 237 233 234 236 231 223 218 216 215 214 214 214 214 214 215 216 216 219 222 221 218 222 224 223 224 214 202 208 213 223 240 253 269 310 351 17 24 25 24 24 29 34
243 242 238 240 243 241 246 252 250 244 236 240 253 252 241 224 205 194 187 183 178 173 170 177 185 181 179 182 197 218 225 220 211 225 298 312 288 272 264 252 245 243 243 241 236 235 236 234 228 221 219 217 216 216 216 217 218 219 220 221 224 227 227 226 228 231 229 231 228 221 222 225 233 243 255 266 274 285 304 328 353 8 10 12 16
241 248 244 242 244 242 243 245 241 237 234 240 248 243 223 203 192 183 178 175 171 173 177 186 191 185 174 180 210 224 225 222 223 269 308 298 292 287 280 270 257 246 243 245 242 239 240 239 236 226 221 219 217 216 217 219 220 222 223 224 228 230 231 232 234 235 234 236 234 232 234 234 237 242 253 263 267 274 282 290 300 318 340 352 357
244 253 252 247 249 247 240 235 233 235 236 240 241 227 202 188 185 180 177 174 173 178 185 197 195 182 178 196 214 221 222 227 261 295 302 296 294 291 287 275 258 242 235 238 240 238 239 239 237 230 223 221 218 216 217 219 221 223 225 226 229 232 233 233 237 236 233 236 238 236 236 238 241 245 251 259 263 267 272 279 284 289 299 313 328
255 253 252 251 250 247 244 237 233 234 234 236 231 210 189 185 186 183 178 176 179 181 190 202 190 172 187 209 216 221 230 262 287 288 291 292 292 290 283 270 254 242 236 238 243 241 238 235 232 227 221 220 219 216 216 218 221 224 225 228 229 232 234 232 235 237 233 236 239 240 239 241 245 247 252 257 261 265 266 270 275 279 283 286 294
259 255 257 248 238 243 253 250 235 225 221 219 210 196 187 186 186 183 182 182 184 185 195 199 166 147 187 209 214 222 261 279 278 277 287 292 291 288 280 270 261 253 246 246 249 247 241 235 228 222 214 214 218 216 215 217 220 223 225 227 230 232 233 231 235 238 236 236 238 241 242 244 247 249 252 254 257 262 264 266 267 271 274 275 277
261 262 265 246 232 242 252 245 229 211 207 200 193 190 188 185 183 183 185 186 186 191 198 191 143 147 194 213 206 192 235 259 262 270 282 285 283 282 278 270 264 261 253 250 253 251 245 239 231 221 210 205 211 215 213 215 218 222 225 227 228 229 230 232 237 239 240 239 238 240 242 244 247 250 252 253 253 255 258 261 263 264 266 266 265
260 262 265 247 237 238 235 234 221 199 195 190 188 187 186 185 184 184 185 186 190 199 198 186 160 151 192 223 216 209 236 251 253 261 269 271 269 265 268 263 255 253 248 246 250 253 250 244 238 229 218 205 201 209 212 213 216 218 221 221 221 222 223 232 238 240 242 243 241 242 243 245 247 250 251 252 252 250 251 255 259 260 260 261 260
258 258 257 250 247 239 228 227 208 196 191 186 187 181 181 182 183 184 186 192 195 200 196 189 186 166 205 234 235 238 242 251 257 261 263 260 255 247 251 255 251 246 238 233 234 244 246 237 234 232 226 214 203 203 211 216 214 216 221 219 220 224 224 231 237 240 244 245 243 243 246 248 248 249 250 250 251 249 248 249 252 256 257 258 258
254 253 252 251 248 241 237 220 186 192 190 185 182 176 178 178 179 184 187 193 193 194 193 196 213 209 226 232 231 242 249 258 264 265 267 263 256 250 241 238 244 246 240 234 236 235 228 219 219 224 229 227 215 202 210 224 219 218 228 230 230 233 232 234 237 238 244 247 246 244 246 248 248 248 248 249 250 248 247 247 247 249 253 255 255
252 245 247 245 233 228 226 200 177 184 186 182 178 173 176 175 175 180 184 189 190 196 201 209 230 229 228 231 231 249 263 264 263 260 264 260 255 260 243 223 230 245 250 247 243 228 217 214 215 220 230 237 226 205 208 227 231 223 225 234 237 235 235 238 238 238 244 247 248 246 245 246 246 246 246 247 247 246 246 246 246 246 247 250 252
251 242 239 235 222 216 205 192 188 186 180 174 172 168 169 172 172 176 180 186 191 194 199 215 235 240 236 238 240 257 269 263 262 258 256 250 245 248 227 215 227 244 253 250 238 223 218 218 213 209 218 237 228 204 211 222 230 231 221 226 234 234 237 240 239 241 243 244 246 248 245 244 245 245 245 245 245 244 244 244 245 246 245 246 248
247 244 236 225 215 216 207 198 193 186 175 167 169 168 166 171 173 177 179 179 185 184 190 218 244 264 260 249 247 260 267 262 265 264 264 264 260 256 227 211 227 247 258 257 242 225 217 211 205 197 200 233 224 196 216 222 220 225 216 217 225 229 239 242 242 242 240 240 244 247 246 245 246 245 244 244 244 244 243 242 243 244 245 245 246
242 244 238 222 209 215 213 199 188 181 172 166 171 173 170 169 169 175 175 171 177 180 200 239 264 275 263 251 255 266 269 268 267 263 267 273 273 274 258 222 217 250 266 254 241 222 209 199 193 190 192 226 224 197 215 222 206 200 202 212 216 220 232 236 239 238 233 238 245 248 246 247 248 246 245 245 244 243 243 242 242 243 245 246 247
236 239 238 226 211 216 217 201 185 176 165 160 165 168 167 167 163 159 161 168 177 191 237 257 269 269 255 252 258 267 271 274 272 266 273 280 280 273 262 238 228 244 256 238 227 206 197 193 185 184 195 219 222 211 222 217 188 171 182 201 205 210 221 220 223 225 226 235 239 240 241 243 247 248 246 246 244 242 242 243 243 244 244 246 248
235 236 237 227 208 213 220 199 179 177 165 155 155 159 162 169 162 144 146 161 181 206 229 234 274 283 282 294 273 260 267 273 275 280 279 278 287 275 250 239 237 232 227 216 199 186 184 184 179 184 208 228 224 223 231 204 164 167 167 181 197 208 223 221 210 207 215 227 229 229 234 238 240 243 242 241 241 241 241 242 243 244 245 247 249
237 238 239 226 203 198 205 186 170 182 181 158 151 155 157 158 149 135 141 140 151 165 119 95 63 37 358 337 333 267 266 272 278 282 278 270 282 275 253 238 239 228 223 200 174 180 182 177 174 192 216 232 226 219 227 179 135 161 157 165 192 205 225 241 225 192 195 215 230 226 220 230 232 233 237 239 240 242 243 244 245 245 246 247 248
238 240 239 225 200 181 183 181 177 181 183 175 164 160 155 152 148 138 133 129 124 109 88 82 75 75 82 58 66 65 250 263 287 288 286 275 262 261 257 251 239 223 216 197 174 180 188 184 179 196 215 229 221 212 230 183 133 149 162 157 185 203 209 237 249 215 195 211 236 235 207 212 226 229 235 239 242 244 247 248 249 249 248 248 248
240 238 235 226 200 171 171 181 184 182 183 183 176 165 156 153 149 136 130 133 122 102 90 81 75 74 69 61 72 82 106 170 295 293 284 272 259 254 250 247 234 207 194 188 183 184 191 195 184 189 204 222 219 208 232 193 132 139 173 151 172 195 192 211 238 246 239 227 254 263 217 175 204 234 240 243 248 250 251 252 252 252 251 252 253
238 229 222 219 199 171 169 180 184 180 183 183 173 162 158 155 149 140 135 135 124 112 103 87 70 62 61 55 63 75 73 72 336 305 294 296 311 272 250 250 238 204 190 188 193 191 187 188 186 194 194 201 213 207 221 194 128 133 175 174 178 185 187 201 222 231 245 252 263 278 297 89 156 243 255 256 257 257 257 255 253 254 254 255 256
231 223 213 212 205 181 169 176 182 180 179 178 168 161 158 157 154 148 138 130 121 109 95 79 64 56 55 50 58 70 69 66 67 33 30 50 22 300 283 270 247 212 199 194 200 201 194 194 200 212 198 199 218 214 219 194 134 141 165 185 198 202 206 207 214 221 236 256 268 285 317 356 337 286 269 260 262 264 262 258 256 256 255 254 256
227 221 215 222 222 201 177 174 178 179 175 171 168 162 157 156 157 151 136 119 102 90 78 68 62 56 52 50 56 63 66 69 61 39 51 53 36 315 294 279 259 239 218 199 200 204 204 212 215 212 198 209 231 231 245 233 183 177 177 180 197 212 226 220 216 219 230 251 269 286 301 315 329 318 288 271 266 267 266 262 255 250 250 250 253
228 215 208 221 223 208 185 175 175 173 168 165 166 160 156 156 152 139 123 110 96 87 78 66 60 56 53 50 55 57 60 61 44 28 42 51 47 15 285 288 280 248 229 205 204 208 206 212 213 209 197 206 233 235 238 242 230 227 216 200 196 204 224 229 227 227 230 237 256 278 285 292 303 302 296 295 288 278 276 274 260 251 254 255 253
233 216 207 212 211 197 177 167 165 162 155 155 157 151 149 147 136 127 122 112 101 90 74 62 55 54 54 50 51 53 55 53 42 35 37 62 72 75 273 291 282 242 241 221 213 213 206 207 210 216 212 208 229 240 242 245 243 239 230 222 221 221 227 232 234 233 229 228 245 273 287 298 292 267 283 294 303 304 298 303 294 277 270 263 257
251 229 222 220 215 198 179 165 158 152 140 138 139 134 134 131 122 125 126 114 105 91 71 58 52 51 52 48 45 47 50 50 42 40 41 50 67 110 237 288 281 257 248 233 219 210 205 210 217 226 230 224 230 243 241 227 226 236 233 231 235 232 237 238 233 230 227 226 235 256 274 291 299 307 3 135 279 300 298 321 335 309 291 268 256
257 245 233 236 227 204 190 184 177 174 167 149 135 124 119 120 121 125 124 116 106 91 73 59 54 50 48 47 44 42 44 46 42 42 37 35 53 77 23 294 290 282 244 235 221 206 204 214 222 224 228 233 230 227 235 228 219 226 232 239 240 236 248 240 220 215 215 221 226 237 258 276 305 332 12 62 127 275 309 345 353 324 329 304 256
255 244 229 235 220 199 188 191 190 188 181 177 158 134 129 136 140 137 131 124 112 95 75 55 53 50 45 44 44 42 39 41 41 41 38 34 50 62 17 281 268 274 228 223 220 210 208 210 217 222 223 233 226 206 217 234 229 221 221 236 250 250 235 214 203 205 205 210 218 222 228 228 225 210 187 200 287 266 310 330 328 332 347 350 334
253 234 218 223 212 200 198 196 193 194 185 184 185 154 142 153 159 151 147 141 130 115 68 41 45 44 41 38 37 37 35 35 34 35 37 26 30 36 14 349 228 246 218 202 206 212 221 217 215 225 229 234 231 208 202 223 234 228 223 231 244 243 220 219 231 216 202 198 205 217 222 219 222 222 215 247 276 279 282 282 281 285 291 307 335
240 219 204 207 207 206 210 206 197 194 189 188 200 190 167 171 180 170 168 168 168 202 346 11 32 35 34 30 27 28 29 28 26 26 27 19 17 22 12 350 227 234 245 237 225 216 228 236 229 229 233 235 240 233 216 220 229 231 232 232 231 232 229 234 234 213 207 209 209 220 231 227 239 250 261 265 272 278 277 271 269 271 284 294 291
211 200 196 207 215 212 211 211 208 202 197 194 204 209 195 191 207 206 205 228 257 289 317 337 5 22 24 20 18 18 19 20 19 18 17 15 11 9 6 348 273 220 221 229 235 239 242 245 246 243 242 242 250 249 235 224 215 216 226 225 218 224 229 228 216 204 211 215 207 213 228 233 252 266 277 269 269 277 279 281 281 282 284 279 281
194 192 198 211 218 215 210 213 219 215 210 208 206 214 212 203 214 229 241 263 284 302 313 320 336 359 7 7 7 8 9 11 10 8 6 7 4 360 355 342 327 260 229 215 211 229 243 241 243 248 245 235 237 239 236 231 216 205 211 217 216 215 217 217 202 193 205 208 196 202 216 219 230 237 249 265 268 270 281 291 304 329 314 293 298
192 197 205 209 210 214 211 213 222 219 219 219 209 211 215 201 214 237 249 269 289 304 311 311 316 331 344 351 355 357 359 1 1 2 3 3 360 355 347 340 338 288 251 214 193 204 223 230 236 244 244 235 231 231 228 224 217 204 201 211 213 204 200 199 188 186 201 203 201 204 195 187 202 204 192 205 237 258 304 321 2 44 17 332 341
202 215 213 206 202 209 207 208 217 219 224 222 208 208 209 201 218 236 243 265 277 290 305 308 313 322 331 335 339 344 348 352 355 357 1 1 356 349 342 337 334 287 221 196 187 190 199 220 228 230 233 229 226 226 218 209 210 207 199 199 200 196 183 165 161 173 188 194 226 208 173 162 172 159 146 142 104 88 49 11 21 45 28 340 341
Height
3142 3142 3142 3143 3143 3144 3144 3145 3146 3147 3147 3148 3149 3149 3150 3151 3151 3151 3152 3152 3153 3154 3154 3154 3154 3154 3154 3155 3155 3155 3155 3155 3155 3155 3155 3156 3157 3158 3159 3160 3161 3162 3164 3164 3165 3166 3167 3168 3168 3169 3170 3170 3171 3171 3171 3171 3172 3172 3172 3171 3171 3171 3171 3170 3169 3169 3168 3167 3167 3166 3166 3165 3164 3164 3162 3161 3160 3159 3158 3157 3156 3155 3154 3153 3153
3141 3141 3142 3142 3142 3143 3144 3144 3145 3146 3147 3147 3148 3149 3150 3150 3150 3151 3152 3152 3153 3153 3154 3153 3154 3154 3154 3154 3155 3155 3155 3155 3155 3155 3156 3157 3158 3158 3159 3160 3162 3163 3164 3164 3165 3166 3167 3168 3169 3170 3170 3171 3172 3172 3172 3172 3173 3173 3173 3172 3172 3172 3172 3171 3170 3170 3169 3168 3168 3167 3167 3166 3166 3165 3164 3163 3161 3160 3159 3158 3158 3157 3155 3155 3154
3140 3141 3141 3141 3142 3142 3143 3144 3144 3145 3146 3147 3148 3149 3149 3150 3150 3151 3151 3152 3152 3153 3153 3153 3153 3153 3154 3154 3154 3155 3155 3155 3156 3156 3156 3157 3158 3159 3159 3160 3161 3162 3163 3165 3166 3167 3167 3168 3169 3170 3171 3171 3172 3173 3173 3173 3173 3174 3174 3173 3173 3173 3173 3172 3172 3171 3170 3170 3169 3168 3168 3168 3167 3167 3165 3164 3163 3162 3161 3160 3160 3159 3157 3157 3156
3138 3139 3140 3141 3141 3142 3142 3143 3144 3145 3146 3147 3147 3148 3149 3149 3150 3150 3151 3151 3152 3152 3152 3152 3152 3153 3153 3154 3154 3155 3155 3155 3156 3156 3157 3157 3158 3158 3159 3160 3161 3162 3163 3165 3166 3166 3167 3168 3169 3170 3171 3172 3172 3173 3174 3174 3174 3174 3174 3174 3174 3174 3174 3173 3173 3172 3171 3171 3171 3170 3169 3169 3169 3168 3167 3166 3166 3165 3163 3162 3162 3161 3160 3159 3158
3137 3138 3139 3140 3141 3142 3142 3143 3144 3145 3145 3146 3147 3147 3148 3149 3149 3150 3150 3150 3151 3151 3152 3152 3152 3152 3153 3153 3154 3154 3155 3155 3156 3157 3157 3157 3158 3159 3159 3160 3161 3162 3163 3165 3166 3166 3168 3168 3169 3170 3171 3172 3173 3174 3174 3175 3175 3175 3175 3175 3175 3175 3175 3174 3174 3173 3173 3172 3172 3171 3169 3170 3170 3170 3169 3168 3168 3167 3166 3164 3164 3163 3162 3161 3160
3137 3138 3139 3140 3141 3141 3142 3143 3144 3144 3145 3145 3146 3147 3147 3148 3149 3149 3149 3150 3150 3151 3151 3151 3151 3152 3152 3153 3153 3154 3155 3155 3156 3156 3157 3157 3158 3158 3159 3160 3161 3162 3164 3165 3166 3167 3168 3169 3170 3170 3171 3172 3173 3174 3175 3175 3175 3176 3176 3176 3176 3176 3175 3175 3175 3174 3174 3173 3173 3172 3171 3171 3171 3171 3171 3170 3170 3169 3168 3167 3166 3165 3164 3163 3163
3136 3138 3139 3140 3140 3141 3142 3143 3143 3144 3144 3144 3145 3146 3147 3147 3148 3148 3148 3149 3149 3150 3150 3151 3151 3152 3152 3153 3153 3154 3155 3155 3156 3157 3157 3157 3158 3158 3159 3160 3161 3162 3164 3165 3166 3167 3168 3169 3170 3171 3172 3172 3173 3174 3175 3176 3176 3176 3176 3176 3176 3176 3176 3176 3175 3175 3175 3174 3174 3172 3172 3173 3173 3173 3173 3172 3171 3171 3170 3169 3168 3167 3166 3165 3165
3136 3138 3139 3140 3140 3141 3142 3142 3142 3143 3143 3144 3144 3145 3146 3146 3147 3148 3148 3149 3149 3150 3150 3151 3151 3152 3152 3153 3153 3154 3155 3155 3156 3157 3157 3158 3158 3158 3159 3160 3161 3162 3163 3165 3166 3167 3168 3169 3170 3171 3172 3173 3173 3174 3175 3176 3176 3177 3177 3177 3177 3177 3177 3177 3176 3176 3176 3176 3174 3173 3174 3175 3175 3174 3174 3174 3173 3173 3172 3171 3170 3169 3168 3168 3167
3137 3138 3139 3139 3140 3140 3141 3141 3141 3142 3143 3143 3143 3144 3145 3146 3146 3147 3148 3148 3149 3150 3150 3151 3151 3152 3152 3153 3153 3154 3155 3156 3156 3157 3157 3158 3158 3159 3160 3160 3161 3162 3163 3165 3166 3167 3168 3169 3170 3171 3172 3173 3173 3174 3175 3176 3177 3177 3177 3178 3178 3178 3178 3177 3177 3177 3177 3176 3175 3175 3176 3176 3176 3176 3175 3175 3175 3174 3174 3173 3172 3172 3171 3170 3169
3137 3138 3138 3138 3139 3139 3140 3140 3140 3141 3142 3142 3143 3144 3144 3145 3146 3147 3147 3148 3149 3150 3150 3151 3151 3152 3152 3153 3153 3154 3155 3156 3156 3157 3157 3158 3158 3159 3160 3160 3161 3162 3163 3164 3166 3167 3168 3169 3170 3171 3172 3173 3173 3174 3175 3176 3177 3177 3178 3178 3178 3178 3178 3178 3178 3178 3177 3177 3177 3177 3177 3177 3177 3177 3177 3177 3176 3176 3175 3175 3174 3174 3173 3172 3171
3137 3136 3137 3138 3138 3138 3138 3139 3140 3140 3141 3142 3143 3143 3144 3145 3146 3147 3147 3148 3149 3149 3150 3151 3151 3152 3152 3153 3154 3154 3155 3156 3156 3157 3157 3158 3159 3160 3160 3160 3161 3161 3162 3163 3165 3166 3167 3168 3170 3171 3172 3172 3173 3174 3175 3176 3177 3177 3178 3178 3178 3178 3178 3178 3178 3178 3177 3177 3178 3178 3178 3178 3179 3178 3178 3178 3178 3178 3177 3176 3176 3175 3175 3174 3174
3136 3136 3137 3138 3138 3138 3138 3139 3139 3140 3140 3141 3142 3143 3144 3145 3145 3146 3147 3148 3148 3149 3150 3151 3151 3152 3153 3153 3154 3155 3155 3156 3156 3157 3157 3158 3159 3160 3160 3160 3160 3161 3162 3163 3164 3165 3166 3167 3169 3170 3171 3172 3173 3174 3175 3176 3177 3178 3178 3178 3178 3178 3178 3178 3179 3179 3178 3178 3178 3179 3179 3179 3180 3180 3180 3180 3179 3179 3178 3178 3178 3177 3177 3176 3176
3136 3136 3137 3137 3137 3137 3138 3138 3139 3139 3140 3141 3142 3143 3144 3144 3145 3146 3146 3147 3148 3149 3149 3150 3151 3152 3153 3153 3154 3154 3155 3155 3156 3157 3157 3158 3159 3159 3160 3160 3160 3161 3162 3162 3163 3164 3165 3167 3168 3169 3170 3172 3173 3174 3175 3176 3177 3177 3178 3178 3179 3179 3179 3179 3179 3179 3178 3179 3179 3180 3180 3180 3180 3181 3181 3181 3181 3180 3180 3180 3179 3179 3178 3178 3178
3136 3136 3136 3136 3137 3137 3137 3138 3138 3139 3140 3141 3142 3143 3143 3144 3145 3145 3146 3147 3147 3148 3149 3150 3151 3152 3153 3154 3154 3154 3155 3155 3156 3157 3158 3159 3159 3159 3160 3160 3161 3161 3161 3162 3163 3163 3165 3166 3168 3169 3170 3171 3172 3174 3175 3176 3177 3177 3178 3178 3179 3179 3179 3179 3180 3180 3179 3179 3180 3180 3181 3181 3181 3182 3182 3182 3182 3182 3182 3181 3181 3181 3180 3180 3179
3135 3135 3135 3136 3136 3136 3137 3137 3138 3138 3139 3140 3141 3142 3143 3144 3144 3145 3145 3146 3147 3148 3149 3150 3151 3153 3153 3154 3154 3154 3155 3155 3156 3157 3158 3159 3159 3159 3160 3160 3161 3161 3161 3162 3162 3163 3164 3165 3167 3168 3169 3170 3172 3173 3174 3176 3177 3177 3178 3178 3179 3178 3179 3179 3180 3180 3179 3180 3180 3181 3181 3182 3182 3182 3183 3183 3183 3183 3183 3183 3183 3182 3182 3181 3181
3134 3134 3135 3135 3135 3135 3136 3137 3137 3137 3138 3139 3140 3141 3142 3143 3144 3145 3146 3146 3147 3149 3150 3150 3151 3153 3153 3154 3154 3155 3156 3156 3157 3158 3158 3158 3159 3159 3160 3160 3161 3161 3161 3161 3161 3162 3163 3164 3165 3166 3168 3169 3171 3172 3174 3175 3176 3177 3177 3178 3178 3178 3179 3179 3180 3180 3179 3180 3181 3181 3182 3182 3183 3183 3183 3184 3184 3184 3184 3184 3184 3184 3183 3183 3183
3134 3134 3134 3134 3134 3135 3135 3135 3136 3137 3138 3139 3140 3141 3142 3143 3144 3145 3145 3146 3147 3148 3150 3150 3151 3152 3153 3153 3154 3155 3156 3157 3158 3158 3158 3158 3159 3160 3160 3160 3160 3161 3161 3161 3161 3161 3162 3163 3164 3165 3167 3168 3170 3171 3173 3174 3175 3176 3177 3177 3177 3177 3178 3179 3179 3180 3180 3181 3182 3182 3182 3183 3183 3184 3184 3184 3185 3185 3185 3185 3185 3185 3185 3184 3184
3134 3134 3134 3133 3134 3134 3134 3134 3135 3136 3138 3139 3140 3140 3142 3142 3143 3144 3145 3145 3146 3148 3149 3150 3151 3151 3152 3153 3154 3156 3157 3158 3158 3158 3158 3158 3159 3159 3160 3160 3160 3160 3160 3161 3161 3161 3161 3161 3163 3164 3166 3167 3169 3170 3172 3173 3174 3175 3176 3176 3176 3177 3178 3179 3179 3179 3180 3181 3182 3182 3182 3183 3184 3184 3185 3185 3185 3185 3186 3186 3186 3186 3186 3186 3185
3133 3134 3133 3132 3133 3133 3133 3134 3135 3137 3138 3138 3139 3140 3141 3141 3142 3143 3144 3145 3146 3148 3149 3150 3150 3150 3151 3152 3154 3156 3158 3159 3158 3158 3158 3158 3159 3159 3159 3159 3159 3159 3160 3160 3160 3159 3160 3160 3161 3163 3164 3166 3168 3169 3171 3172 3173 3174 3175 3176 3176 3176 3177 3179 3178 3179 3181 3181 3182 3182 3182 3183 3184 3185 3185 3185 3186 3186 3186 3186 3186 3186 3187 3186 3186
3133 3132 3132 3132 3132 3132 3133 3134 3135 3136 3137 3138 3139 3139 3139 3140 3141 3142 3143 3144 3146 3147 3148 3148 3149 3149 3150 3153 3155 3157 3158 3158 3157 3158 3158 3158 3158 3159 3159 3159 3159 3159 3159 3159 3159 3159 3159 3159 3160 3161 3163 3165 3166 3168 3170 3171 3173 3173 3174 3175 3175 3175 3176 3178 3177 3179 3181 3181 3182 3182 3182 3183 3184 3185 3185 3185 3186 3186 3186 3187 3187 3187 3187 3187 3187
3132 3131 3131 3131 3131 3132 3132 3132 3134 3135 3137 3138 3138 3138 3138 3139 3141 3142 3143 3144 3146 3147 3147 3147 3147 3148 3151 3154 3156 3157 3158 3157 3157 3158 3158 3158 3158 3158 3158 3159 3159 3159 3159 3159 3159 3159 3159 3159 3159 3160 3162 3163 3165 3167 3169 3170 3172 3172 3173 3174 3174 3174 3175 3176 3177 3178 3180 3180 3181 3182 3182 3183 3183 3184 3185 3185 3186 3186 3186 3187 3187 3187 3187 3187 3187
3131 3131 3130 3129 3130 3130 3130 3132 3134 3136 3137 3138 3137 3137 3138 3139 3140 3142 3143 3145 3146 3146 3146 3145 3146 3149 3153 3155 3156 3156 3156 3157 3157 3157 3157 3157 3157 3158 3158 3158 3158 3158 3158 3158 3158 3158 3158 3158 3158 3159 3160 3162 3163 3165 3167 3168 3170 3171 3172 3173 3173 3173 3173 3176 3175 3176 3179 3180 3181 3182 3181 3182 3183 3184 3184 3185 3185 3186 3186 3186 3187 3187 3188 3188 3188
3130 3130 3129 3128 3129 3129 3128 3132 3134 3136 3137 3136 3136 3137 3138 3139 3140 3142 3144 3145 3145 3146 3145 3144 3147 3152 3154 3155 3155 3155 3156 3156 3156 3156 3156 3156 3156 3157 3157 3157 3157 3157 3157 3157 3157 3157 3157 3157 3157 3158 3159 3160 3162 3164 3165 3167 3168 3170 3171 3171 3172 3172 3172 3174 3172 3173 3178 3179 3179 3180 3181 3181 3182 3183 3184 3184 3185 3185 3186 3186 3186 3187 3187 3188 3188
3129 3129 3128 3127 3128 3128 3129 3131 3132 3135 3136 3135 3136 3137 3138 3139 3140 3142 3144 3145 3145 3145 3144 3145 3150 3154 3155 3154 3154 3155 3155 3155 3155 3155 3155 3155 3155 3156 3156 3156 3156 3156 3157 3157 3156 3156 3156 3156 3156 3157 3158 3159 3160 3162 3164 3165 3167 3168 3169 3170 3171 3170 3170 3171 3170 3173 3177 3177 3178 3179 3179 3180 3181 3182 3183 3183 3184 3184 3185 3185 3186 3186 3187 3187 3188
3127 3127 3126 3125 3127 3129 3130 3129 3131 3134 3135 3135 3136 3137 3138 3139 3140 3142 3144 3145 3145 3144 3144 3147 3153 3155 3155 3154 3155 3155 3155 3154 3154 3154 3154 3154 3155 3155 3155 3155 3155 3155 3156 3156 3155 3155 3155 3155 3155 3155 3156 3158 3159 3161 3162 3164 3165 3166 3167 3168 3168 3167 3167 3168 3169 3173 3175 3176 3177 3177 3178 3179 3180 3181 3182 3182 3183 3183 3184 3184 3185 3185 3186 3186 3187
3127 3127 3125 3123 3125 3129 3129 3129 3131 3133 3133 3134 3136 3137 3138 3139 3141 3142 3144 3144 3144 3144 3146 3150 3153 3155 3154 3154 3155 3155 3155 3154 3154 3153 3154 3154 3154 3154 3154 3154 3154 3154 3155 3154 3154 3154 3154 3154 3155 3155 3156 3157 3158 3159 3161 3162 3162 3164 3164 3164 3163 3163 3165 3168 3170 3173 3174 3174 3176 3177 3178 3178 3179 3180 3181 3181 3182 3182 3183 3183 3184 3184 3185 3186 3186
3126 3126 3124 3123 3125 3128 3128 3129 3131 3132 3132 3133 3135 3137 3138 3139 3141 3142 3143 3144 3144 3145 3148 3150 3152 3154 3154 3153 3153 3154 3154 3153 3153 3152 3153 3153 3153 3153 3154 3153 3153 3154 3154 3153 3153 3153 3154 3154 3154 3155 3156 3156 3157 3158 3159 3159 3159 3161 3159 3159 3161 3164 3167 3168 3170 3172 3173 3174 3175 3176 3177 3177 3178 3179 3180 3180 3181 3181 3181 3182 3183 3183 3184 3185 3185
3125 3125 3123 3123 3126 3126 3126 3128 3130 3131 3131 3132 3135 3137 3138 3139 3141 3142 3143 3143 3143 3145 3148 3150 3151 3153 3153 3152 3152 3152 3153 3152 3152 3152 3152 3152 3153 3153 3154 3154 3153 3153 3153 3152 3152 3153 3153 3153 3154 3155 3156 3157 3156 3156 3157 3157 3157 3159 3159 3160 3163 3165 3167 3168 3170 3172 3172 3174 3174 3175 3176 3176 3177 3178 3178 3179 3179 3180 3180 3181 3182 3182 3183 3184 3184
3123 3124 3121 3122 3126 3125 3125 3127 3129 3130 3130 3132 3135 3136 3137 3139 3141 3142 3142 3142 3144 3146 3148 3149 3150 3151 3152 3151 3151 3151 3152 3152 3152 3152 3152 3152 3153 3153 3153 3153 3153 3152 3152 3152 3152 3152 3153 3153 3153 3154 3156 3157 3156 3156 3156 3156 3156 3158 3161 3162 3163 3163 3165 3167 3170 3171 3172 3172 3173 3174 3174 3175 3175 3176 3177 3177 3178 3178 3179 3180 3180 3181 3182 3182 3183
3122 3122 3120 3122 3124 3124 3125 3127 3128 3128 3129 3131 3133 3135 3136 3139 3140 3141 3142 3144 3146 3147 3148 3149 3149 3150 3151 3150 3150 3150 3151 3151 3151 3151 3152 3152 3153 3153 3153 3153 3152 3152 3152 3151 3151 3151 3152 3153 3153 3154 3156 3157 3157 3156 3155 3155 3154 3155 3160 3163 3161 3161 3163 3166 3169 3170 3170 3170 3171 3172 3173 3173 3173 3174 3175 3176 3176 3177 3177 3178 3179 3180 3180 3181 3181
3121 3119 3118 3121 3123 3122 3123 3126 3128 3127 3128 3131 3132 3134 3137 3139 3140 3142 3144 3145 3146 3147 3148 3148 3148 3149 3149 3149 3149 3150 3150 3150 3150 3149 3150 3151 3151 3152 3153 3153 3152 3152 3151 3151 3151 3151 3152 3152 3153 3154 3156 3157 3157 3155 3154 3154 3154 3155 3159 3161 3161 3162 3162 3164 3167 3168 3169 3169 3169 3170 3171 3172 3172 3172 3173 3174 3175 3175 3176 3177 3177 3178 3179 3180 3180
3120 3117 3116 3120 3122 3122 3122 3124 3127 3127 3129 3132 3133 3135 3137 3139 3141 3143 3144 3145 3145 3147 3147 3148 3148 3148 3148 3148 3148 3148 3149 3149 3149 3149 3149 3149 3149 3150 3151 3151 3151 3152 3151 3150 3150 3151 3151 3152 3153 3154 3155 3157 3156 3155 3154 3154 3156 3158 3158 3159 3162 3162 3162 3163 3165 3166 3167 3167 3168 3168 3169 3170 3171 3171 3172 3173 3173 3174 3174 3175 3176 3177 3178 3178 3179
3119 3116 3115 3117 3120 3120 3120 3121 3124 3126 3129 3132 3135 3136 3137 3138 3141 3143 3144 3144 3145 3146 3147 3148 3148 3147 3147 3147 3147 3147 3148 3149 3149 3150 3149 3148 3147 3148 3149 3150 3151 3151 3151 3150 3150 3151 3151 3151 3153 3153 3154 3156 3156 3155 3154 3155 3158 3160 3159 3159 3161 3162 3162 3163 3164 3164 3166 3166 3166 3166 3167 3168 3170 3171 3171 3171 3172 3173 3173 3174 3175 3176 3176 3177 3178
3117 3115 3113 3116 3118 3117 3117 3118 3121 3123 3126 3130 3134 3136 3136 3138 3140 3143 3144 3144 3145 3146 3147 3148 3147 3146 3146 3147 3147 3147 3147 3148 3148 3148 3148 3148 3148 3147 3148 3149 3150 3151 3150 3150 3151 3151 3151 3152 3153 3153 3154 3155 3156 3155 3154 3157 3160 3160 3160 3160 3160 3161 3161 3161 3163 3165 3166 3165 3164 3164 3165 3168 3170 3170 3170 3170 3171 3172 3172 3173 3174 3174 3175 3176 3176
3115 3113 3112 3115 3118 3117 3117 3119 3122 3122 3123 3128 3132 3135 3137 3138 3140 3142 3143 3145 3146 3146 3147 3147 3146 3146 3146 3146 3146 3146 3146 3147 3146 3147 3147 3148 3148 3148 3148 3149 3149 3150 3150 3150 3151 3151 3151 3152 3153 3153 3154 3155 3157 3156 3154 3157 3159 3159 3160 3161 3161 3161 3161 3160 3162 3166 3167 3165 3162 3162 3165 3167 3167 3168 3168 3170 3170 3171 3171 3172 3172 3173 3173 3174 3174
3113 3112 3110 3111 3115 3119 3121 3123 3124 3124 3125 3127 3131 3135 3137 3139 3141 3142 3144 3145 3145 3146 3146 3146 3146 3146 3146 3146 3146 3145 3145 3145 3145 3145 3146 3146 3147 3147 3147 3148 3149 3150 3150 3150 3151 3151 3151 3152 3153 3152 3154 3155 3157 3156 3155 3158 3161 3159 3160 3161 3161 3162 3161 3161 3161 3164 3166 3165 3161 3160 3164 3166 3166 3167 3168 3169 3170 3170 3170 3170 3171 3172 3172 3172 3172
3112 3110 3107 3107 3114 3122 3125 3125 3125 3127 3128 3129 3132 3135 3137 3139 3141 3143 3144 3144 3144 3144 3145 3146 3146 3146 3146 3145 3145 3145 3145 3144 3144 3145 3145 3145 3146 3146 3146 3147 3149 3150 3150 3150 3150 3151 3151 3152 3153 3153 3153 3155 3156 3156 3156 3160 3162 3161 3160 3161 3161 3161 3162 3162 3161 3162 3163 3163 3161 3159 3163 3167 3167 3167 3168 3168 3169 3169 3169 3169 3170 3170 3170 3170 3171
3108 3106 3106 3108 3115 3123 3127 3126 3126 3128 3128 3130 3133 3135 3137 3139 3141 3142 3143 3144 3144 3144 3145 3145 3145 3144 3144 3144 3143 3143 3143 3144 3144 3144 3145 3145 3146 3145 3146 3147 3148 3150 3150 3150 3149 3150 3151 3152 3153 3153 3154 3156 3156 3156 3157 3160 3161 3161 3160 3160 3161 3162 3162 3162 3162 3162 3162 3162 3161 3158 3162 3167 3167 3167 3167 3167 3167 3167 3168 3168 3168 3168 3168 3169 3169
3102 3104 3109 3113 3117 3122 3127 3128 3128 3129 3129 3129 3133 3135 3137 3139 3141 3142 3143 3144 3144 3144 3144 3143 3143 3142 3142 3142 3142 3142 3142 3143 3143 3144 3145 3146 3146 3145 3145 3146 3148 3150 3150 3150 3149 3149 3151 3151 3152 3153 3153 3155 3156 3156 3157 3159 3160 3161 3161 3160 3161 3161 3162 3162 3162 3162 3162 3162 3161 3160 3163 3165 3166 3166 3166 3166 3166 3166 3166 3166 3167 3167 3166 3167 3167
3102 3109 3116 3117 3118 3121 3125 3128 3129 3130 3130 3130 3132 3135 3137 3139 3141 3142 3142 3142 3142 3142 3142 3142 3141 3141 3141 3141 3142 3142 3142 3143 3143 3144 3145 3145 3145 3144 3145 3145 3147 3149 3149 3149 3148 3149 3150 3151 3152 3153 3154 3155 3156 3156 3156 3157 3159 3160 3161 3161 3161 3161 3161 3161 3161 3161 3162 3162 3161 3162 3163 3164 3165 3164 3163 3164 3165 3164 3164 3164 3164 3164 3164 3165 3166
3108 3116 3119 3118 3117 3119 3124 3127 3129 3131 3132 3133 3133 3135 3137 3139 3140 3140 3140 3141 3141 3142 3142 3142 3142 3142 3142 3142 3142 3142 3142 3143 3143 3143 3144 3144 3145 3145 3144 3144 3146 3148 3147 3148 3148 3148 3150 3151 3152 3153 3154 3155 3155 3156 3156 3156 3158 3159 3160 3161 3161 3161 3161 3161 3161 3162 3162 3162 3161 3161 3162 3164 3165 3164 3163 3163 3163 3163 3163 3162 3162 3163 3163 3165 3166
3115 3118 3118 3117 3116 3119 3123 3126 3129 3132 3132 3133 3133 3133 3135 3136 3137 3139 3140 3141 3142 3143 3143 3143 3143 3143 3142 3142 3142 3143 3143 3143 3143 3143 3143 3144 3145 3145 3144 3143 3145 3146 3146 3147 3147 3147 3149 3150 3151 3152 3153 3154 3155 3156 3155 3155 3157 3159 3159 3160 3161 3160 3160 3161 3161 3162 3161 3162 3162 3162 3162 3162 3163 3164 3164 3163 3162 3162 3162 3162 3162 3162 3163 3164 3165
3116 3118 3118 3118 3120 3123 3126 3128 3130 3132 3132 3132 3130 3129 3131 3132 3135 3139 3141 3142 3143 3143 3144 3144 3143 3143 3143 3143 3142 3142 3143 3143 3142 3142 3143 3144 3144 3144 3144 3143 3144 3145 3145 3146 3147 3147 3149 3150 3151 3151 3152 3153 3154 3155 3155 3155 3157 3158 3159 3159 3160 3159 3159 3160 3161 3161 3162 3162 3162 3162 3162 3162 3162 3162 3163 3163 3162 3161 3161 3162 3163 3162 3162 3162 3162
3115 3117 3119 3121 3123 3126 3129 3130 3130 3131 3131 3131 3128 3127 3131 3134 3136 3139 3141 3142 3143 3143 3144 3144 3143 3143 3143 3143 3142 3142 3142 3142 3142 3142 3142 3143 3143 3143 3143 3143 3143 3143 3144 3145 3146 3147 3149 3150 3150 3151 3152 3152 3153 3155 3155 3155 3156 3157 3158 3158 3159 3159 3159 3159 3160 3161 3162 3162 3162 3162 3162 3162 3162 3161 3161 3161 3161 3160 3160 3161 3162 3161 3161 3161 3161
3114 3117 3119 3121 3122 3125 3128 3129 3129 3130 3130 3130 3130 3129 3133 3136 3137 3139 3140 3141 3142 3142 3143 3143 3143 3143 3142 3142 3142 3142 3142 3142 3143 3142 3142 3142 3142 3142 3142 3143 3142 3142 3143 3143 3144 3146 3147 3149 3149 3150 3151 3152 3154 3156 3155 3154 3155 3156 3157 3157 3157 3158 3158 3159 3160 3160 3161 3162 3162 3162 3162 3162 3162 3161 3160 3160 3160 3160 3160 3160 3160 3160 3161 3161 3161
3113 3116 3118 3119 3121 3124 3126 3127 3127 3129 3130 3132 3132 3132 3133 3136 3137 3139 3140 3140 3141 3141 3142 3142 3142 3142 3142 3142 3142 3142 3142 3142 3142 3142 3141 3141 3141 3141 3141 3142 3142 3141 3142 3142 3143 3144 3145 3147 3148 3150 3150 3150 3152 3154 3154 3154 3154 3155 3155 3155 3156 3157 3158 3158 3159 3160 3160 3161 3161 3161 3161 3161 3161 3161 3160 3160 3159 3159 3159 3160 3159 3159 3160 3160 3160
3113 3115 3118 3119 3121 3123 3125 3126 3126 3128 3130 3131 3132 3132 3134 3136 3137 3138 3139 3139 3140 3140 3141 3141 3141 3141 3141 3141 3141 3141 3142 3142 3142 3141 3141 3140 3140 3140 3141 3141 3141 3141 3141 3141 3142 3143 3144 3145 3146 3148 3149 3149 3149 3151 3152 3153 3153 3154 3154 3154 3155 3156 3157 3157 3158 3159 3159 3160 3160 3160 3161 3161 3161 3160 3160 3160 3159 3158 3158 3159 3159 3159 3160 3160 3160
3112 3114 3117 3119 3121 3122 3124 3125 3126 3128 3129 3129 3130 3132 3134 3135 3137 3138 3138 3138 3139 3139 3140 3140 3140 3140 3140 3141 3140 3141 3141 3141 3141 3141 3140 3140 3139 3139 3140 3140 3141 3142 3142 3141 3141 3142 3142 3143 3144 3145 3147 3147 3147 3149 3150 3152 3153 3154 3154 3154 3154 3155 3156 3156 3157 3158 3158 3159 3160 3160 3160 3160 3160 3160 3160 3160 3159 3158 3158 3158 3159 3160 3160 3160 3160
3113 3115 3117 3119 3120 3122 3123 3124 3125 3126 3128 3129 3130 3131 3132 3133 3135 3136 3137 3138 3139 3139 3140 3140 3140 3140 3140 3140 3140 3140 3140 3140 3140 3140 3140 3139 3139 3139 3139 3139 3140 3141 3141 3141 3142 3142 3142 3143 3144 3145 3146 3147 3147 3148 3149 3150 3151 3152 3153 3153 3153 3153 3155 3156 3156 3157 3157 3158 3159 3159 3159 3159 3159 3159 3159 3159 3159 3159 3158 3158 3158 3159 3160 3159 3160
3114 3115 3117 3118 3120 3122 3123 3124 3124 3125 3127 3128 3128 3130 3130 3131 3133 3135 3136 3137 3138 3139 3140 3140 3140 3139 3139 3139 3139 3139 3139 3140 3140 3139 3139 3139 3138 3138 3138 3138 3139 3140 3140 3141 3142 3142 3143 3143 3144 3145 3145 3146 3147 3148 3149 3149 3150 3151 3152 3152 3152 3153 3155 3155 3155 3157 3157 3158 3158 3158 3158 3159 3159 3159 3159 3159 3159 3159 3158 3158 3158 3159 3159 3159 3159
3115 3115 3116 3118 3120 3122 3123 3123 3124 3124 3125 3126 3127 3128 3128 3130 3131 3133 3135 3136 3137 3138 3138 3139 3139 3139 3138 3138 3138 3139 3139 3139 3139 3139 3139 3138 3138 3138 3138 3138 3138 3139 3140 3140 3141 3142 3142 3143 3144 3144 3145 3146 3147 3148 3148 3149 3149 3150 3151 3152 3152 3153 3154 3155 3156 3157 3157 3157 3158 3157 3158 3158 3158 3158 3158 3158 3158 3158 3159 3158 3159 3160 3160 3159 3159